User: anonymous   Login
Location: *
(37.5724°S, 58.0067°E)
Time: 00:31:30
(UTC+00:00)
Language:

BREEZE-M DEB (TANK) - Orbit

View from above orbital plane
View from above orbital plane
View from above satellite
View from above satellite

Ground track
Ground track

The orbit data is extracted from the following two-line orbital elements,

1 29649U 06056B   20336.36778794 +.00002412 +00000-0 +60871-3 0  9996
2 29649 049.5859 024.6085 5352651 233.9847 063.8844 05.02563969251118
Epoch (UTC): 01 December 2020 08:49:36
Eccentricity: 0.5352651
inclination: 49.5859°
perigee height: 312 km
apogee height: 15725 km
right ascension of ascending node: 24.6085°
argument of perigee: 233.9847°
revolutions per day: 5.02563969
mean anomaly at epoch: 63.8844°
orbit number at epoch: 25111

The dashed part of the orbit path shows where the satellite is in the earth's shadow,  

DLR